Погода в Красном Яре

Россия / Томская область     57°08′32″N   84°30′59″E
темп.,
°C
ветер,
м/с
пор.,
м/с
влажн.,
%
обл.,
%
осадки,
мм/ч
давл.,
гПа
погр.,
м
10 мая, пн
пн1001:00+3ссв28865 0.0 1024153
04:00+2ссв25915 0.0 102583
07:00+4ссв27815 0.0 1026231
10:00+10св355961 0.0 10261121
13:00+11св345389 0.0 10251493
16:00+12св335279 0.0 10251529
19:00+12ссв244954 0.0 10241413
22:00+8ссв25706 0.0 102391
11 мая, вт
вт1101:00+7ссв3117271 0.0 1022326
04:00+7ссв3977100 0.0 1022286
07:00+7ссв388095 0.0 1022280
10:00+13ссв465789 0.0 1022752
13:00+16св554293 0.1 10212235
16:00+15ссв4650100 0.4 10211862
19:00+14ссв465395 0.6 10211463
22:00+9с3107062 0.1 1022242
12 мая, ср
ср1201:00+7с3107748 0.1 1022243
04:00+5ссв288551 0.0 1022156
07:00+7с257217 0.0 1022169
10:00+13ссз33485 0.0 1021717
13:00+16сз22393 0.0 10201579
16:00+18зсз23350 0.0 10191863
19:00+17зсз24356 0.0 10182052
22:00+10с11531 0.0 101810
13 мая, чт
чт1301:00+8юв22590 0.0 101812
04:00+7ю11670 0.0 101711
07:00+9ююз13620 0.0 101783
10:00+15зюз23442 0.0 1017659
13:00+18зсз354017 0.0 10172161
16:00+16сз665374 0.1 10161403
19:00+15сз455693 0.1 10161310
22:00+11зсз1271100 0.0 101653
14 мая, пт
пт1401:00+9з2673100 0.0 1015159
04:00+8сз4779100 0.1 1013470
07:00+7з41086100 0.8 1013842
10:00+10ссз6116915 0.3 10141348
13:00+10ссз7113931 0.4 10162053
16:00+11сз6102950 0.0 10172474
19:00+11сз59335 0.0 10192420
22:00+6зсз38495 0.0 1020202